Regional Weather Roundup
Issued by NWS Green Bay, WI

Home | Current Version | Previous Version | Graphics & Text | Print | Product List | Glossary Off
Versions: 1 2 3 4 5 6 7 8 9 10 11 12 13 14 15 16 17 18 19 20 21 22 23 24 25 26 27 28 29 30 31 32 33 34 35 36 37 38 39 40 41 42 43 44 45 46 47 48 49 50

000
ASUS43 KGRB 250300
RWRGRB

NORTH-CENTRAL AND NORTHEAST WISCONSIN REGIONAL WEATHER ROUNDUP
NATIONAL WEATHER SERVICE GREEN BAY WI
1000 PM CDT MON APR 24 2017

WIZ005-009-010>012-018-019-250400-
NORTH CENTRAL WISCONSIN

CITY           SKY/WX    TMP DP  RH WIND       PRES   REMARKS
IRONWOOD       CLOUDY    59  36  42 SE12      29.68S
MANITOWISH WTR NOT AVBL
ARBOR VITAE    NOT AVBL
EAGLE RIVER    NOT AVBL
LAND O LAKES   NOT AVBL
RHINELANDER    CLOUDY    57  36  45 SE10      29.75R
PHILLIPS       CLOUDY    62  32  32 S12G23    29.69R
ANTIGO         NOT AVBL
TOMAHAWK       NOT AVBL
MERRILL        NOT AVBL
$$

WIZ013-073-250400-
NORTHEAST WISCONSIN

CITY           SKY/WX    TMP DP  RH WIND       PRES   REMARKS
IRON MOUNTAIN  PTCLDY    44  34  67 E6        29.80S
MARINETTE      CLOUDY    44  38  79 E7        29.82F
$$

WIZ017-030-035>037-045-250400-
CENTRAL WISCONSIN

CITY           SKY/WX    TMP DP  RH WIND       PRES   REMARKS
MEDFORD        NOT AVBL
WAUSAU         CLOUDY    59  33  37 SE12      29.71R
MOSINEE        CLEAR     57  34  41 SE8       29.73S
MARSHFIELD     CLOUDY    60  33  36 SE7       29.70R
WISC RAPIDS    NOT AVBL
STEVENS POINT  NOT AVBL
WAUPACA        NOT AVBL
SHAWANO        CLOUDY    60  31  33 SE7       29.76F
CLINTONVILLE   NOT AVBL
WAUTOMA        MOCLDY    62  31  31 SE10      29.73S
$$

WIZ038-039-048-051-250400-
FOX VALLEY

CITY           SKY/WX    TMP DP  RH WIND       PRES   REMARKS
NWS GREEN BAY  CLOUDY    52  37  56 E8        29.78F
APPLETON       MOCLDY    55  30  38 SE9       29.75F
OSHKOSH        MOCLDY    57  33  40 SE8       29.75F
FOND DU LAC    CLOUDY    57  30  35 SE16      29.75F
$$

WIZ022-050-052-250400-
EAST CENTRAL WISCONSIN

CITY           SKY/WX    TMP DP  RH WIND       PRES   REMARKS
EPHRAIM        NOT AVBL
WASHINGTON ISL NOT AVBL
STURGEON BAY   CLOUDY    45  34  65 E8        29.81F
MANITOWOC      NOT AVBL
SHEBOYGAN      CLOUDY    45  36  70 E3        29.80S
$$

LMZ563-521-522-541>543-250400-
LAKESHORE

STATION/POSITION TIME  TEMP    WIND        PRES    VSBY  WAVE
                       AIR SEA DIR/SP/G                  HT/PER
                 (UTC) (F)     (DEG/KT/KT) (MB)    (MI)  (FT/S)
SHEBOYGAN LKSHOR 0200   45     120/  3/  4 1009.5R
KEWAUNEE LKSHORE 0230   43      70/  2/  3 1009.4F
NORTHPORT PIER   0240   42     140/  3/  4 1010.5F
N MID LAKE BUOY  0150   41 37   80/ 10/ 12 1011.8F         2/ 4
SISTER BAY LKSHO 0206   44      90/ 11/ 14   N/A
CHAMBERS ISLAND  0240   45      80/  6/  8 1009.8F
MENOMINEE LKSHOR 0230   43      50/  6/  7 1009.1F
$$




USA.gov is the U.S. government's official web portal to all federal, state and local government web resources and services.